• In Netherlands
  • List of Countries
  • For 7 days
  • Water Temperature
  • Satellite Maps
  • Weather Map
  • Weather Widgets
  • user-avatar
    Login

    Hourly Weather Salta

    Today, 24 June, Saturday

    Time Temperature Precipitation Wind Pressure Humidity
    00:00 +14°C° 0 mm 2 mps 650 mmHg 62%
    01:00 +14°C° 0 mm 2 mps 650 mmHg 61%
    02:00 +14°C° 0 mm 2 mps 650 mmHg 59%
    03:00 +14°C° 0 mm 2 mps 649 mmHg 58%
    04:00 +14°C° 0 mm 2 mps 649 mmHg 57%
    05:00 +14°C° 0 mm 2 mps 649 mmHg 56%
    06:00 +14°C° 0 mm 2 mps 650 mmHg 53%
    07:00 +15°C° 0 mm 2 mps 650 mmHg 49%
    08:00 +15°C° 0 mm 2 mps 651 mmHg 46%
    09:00 +18°C° 0 mm 2 mps 652 mmHg 42%
    10:00 +21°C° 0 mm 2 mps 652 mmHg 38%
    11:00 +25°C° 0 mm 2 mps 653 mmHg 33%
    12:00 +25°C° 0 mm 2 mps 653 mmHg 32%
    13:00 +26°C° 0 mm 3 mps 652 mmHg 31%
    14:00 +27°C° 0 mm 3 mps 651 mmHg 30%
    15:00 +26°C° 0 mm 3 mps 651 mmHg 35%
    16:00 +25°C° 0 mm 3 mps 651 mmHg 41%
    17:00 +22°C° 0 mm 3 mps 651 mmHg 46%
    18:00 +20°C° 0 mm 2 mps 650 mmHg 55%
    19:00 +18°C° 0 mm 2 mps 650 mmHg 63%
    20:00 +16°C° 0 mm 2 mps 650 mmHg 72%
    21:00 +16°C° 0 mm 2 mps 650 mmHg 71%
    22:00 +15°C° 0 mm 2 mps 650 mmHg 71%
    23:00 +15°C° 0 mm 2 mps 651 mmHg 70%

    Tomorrow, 25 June, Sunday

    Time Temperature Precipitation Wind Pressure Humidity
    00:00 +15°C° 0 mm 2 mps 650 mmHg 69%
    01:00 +15°C° 0 mm 2 mps 650 mmHg 68%
    02:00 +15°C° 0 mm 2 mps 650 mmHg 67%
    03:00 +15°C° 0 mm 2 mps 650 mmHg 65%
    04:00 +15°C° 0 mm 2 mps 650 mmHg 63%
    05:00 +14°C° 0 mm 3 mps 649 mmHg 61%
    06:00 +16°C° 0 mm 3 mps 650 mmHg 59%
    07:00 +16°C° 0 mm 3 mps 650 mmHg 57%
    08:00 +17°C° 0 mm 3 mps 651 mmHg 54%
    09:00 +19°C° 0 mm 3 mps 651 mmHg 52%
    10:00 +21°C° 0 mm 3 mps 651 mmHg 50%
    11:00 +23°C° 0 mm 4 mps 652 mmHg 47%
    12:00 +25°C° 0 mm 4 mps 651 mmHg 46%
    13:00 +25°C° 0 mm 4 mps 650 mmHg 45%
    14:00 +26°C° 0 mm 4 mps 650 mmHg 44%
    15:00 +25°C° 0 mm 4 mps 649 mmHg 49%
    16:00 +24°C° 0 mm 3 mps 649 mmHg 54%
    17:00 +22°C° 0 mm 3 mps 649 mmHg 58%
    18:00 +20°C° 0 mm 2 mps 649 mmHg 63%
    19:00 +19°C° 0 mm 2 mps 649 mmHg 68%
    20:00 +17°C° 0 mm 2 mps 649 mmHg 73%
    21:00 +17°C° 0 mm 2 mps 649 mmHg 73%
    22:00 +17°C° 0 mm 2 mps 649 mmHg 73%
    23:00 +17°C° 0 mm 2 mps 650 mmHg 73%

    Day after tomorrow, 26 June, Monday

    Time Temperature Precipitation Wind Pressure Humidity
    00:00 +17°C° 0 mm 2 mps 649 mmHg 71%
    01:00 +17°C° 0 mm 2 mps 649 mmHg 69%
    02:00 +16°C° 0 mm 2 mps 649 mmHg 68%
    03:00 +16°C° 0 mm 2 mps 649 mmHg 67%
    04:00 +16°C° 0 mm 2 mps 648 mmHg 66%
    05:00 +16°C° 0 mm 2 mps 648 mmHg 65%
    06:00 +16°C° 0 mm 3 mps 648 mmHg 63%
    07:00 +17°C° 0 mm 3 mps 648 mmHg 61%
    08:00 +17°C° 0 mm 3 mps 649 mmHg 59%
    09:00 +19°C° 0 mm 3 mps 649 mmHg 55%
    10:00 +21°C° 0 mm 4 mps 649 mmHg 52%
    11:00 +23°C° 0 mm 4 mps 649 mmHg 48%
    12:00 +25°C° 0 mm 5 mps 648 mmHg 46%
    13:00 +26°C° 0 mm 5 mps 648 mmHg 44%
    14:00 +27°C° 0 mm 6 mps 647 mmHg 42%
    15:00 +25°C° 0 mm 5 mps 647 mmHg 47%
    16:00 +23°C° 0 mm 5 mps 647 mmHg 52%
    17:00 +22°C° 0 mm 4 mps 647 mmHg 56%
    18:00 +21°C° 0 mm 4 mps 647 mmHg 60%
    19:00 +19°C° 0 mm 3 mps 647 mmHg 64%
    20:00 +18°C° 0 mm 3 mps 647 mmHg 68%
    21:00 +18°C° 0 mm 3 mps 647 mmHg 67%
    22:00 +17°C° 0 mm 3 mps 648 mmHg 66%
    23:00 +17°C° 0 mm 3 mps 648 mmHg 65%

    27 June, Tuesday

    Time Temperature Precipitation Wind Pressure Humidity
    00:00 +17°C° 0 mm 3 mps 648 mmHg 64%
    01:00 +17°C° 0 mm 3 mps 647 mmHg 62%
    02:00 +16°C° 0 mm 3 mps 647 mmHg 61%
    03:00 +16°C° 0 mm 3 mps 647 mmHg 57%
    04:00 +16°C° 0 mm 3 mps 647 mmHg 54%
    05:00 +14°C° 0 mm 3 mps 647 mmHg 51%
    06:00 +16°C° 0 mm 3 mps 648 mmHg 48%
    07:00 +16°C° 0 mm 3 mps 648 mmHg 45%
    08:00 +17°C° 0 mm 3 mps 649 mmHg 42%
    09:00 +20°C° 0 mm 3 mps 650 mmHg 37%
    10:00 +22°C° 0 mm 3 mps 650 mmHg 33%
    11:00 +26°C° 0 mm 4 mps 651 mmHg 29%
    12:00 +26°C° 0 mm 4 mps 651 mmHg 31%
    13:00 +26°C° 0 mm 4 mps 650 mmHg 34%
    14:00 +27°C° 0 mm 5 mps 650 mmHg 36%
    15:00 +25°C° 0 mm 5 mps 650 mmHg 43%
    16:00 +22°C° 0 mm 4 mps 650 mmHg 50%
    17:00 +21°C° 0 mm 4 mps 650 mmHg 58%
    18:00 +19°C° 0 mm 3 mps 650 mmHg 63%
    19:00 +17°C° 0 mm 3 mps 651 mmHg 68%
    20:00 +15°C° 0 mm 2 mps 651 mmHg 73%
    21:00 +15°C° 0 mm 2 mps 651 mmHg 71%
    22:00 +15°C° 0 mm 2 mps 652 mmHg 69%
    23:00 +15°C° 0 mm 2 mps 652 mmHg 67%

    28 June, Wednesday

    Time Temperature Precipitation Wind Pressure Humidity
    00:00 +15°C° 0 mm 2 mps 652 mmHg 66%
    01:00 +14°C° 0 mm 2 mps 651 mmHg 65%
    02:00 +14°C° 0 mm 2 mps 651 mmHg 64%
    03:00 +14°C° 0 mm 2 mps 651 mmHg 63%
    04:00 +13°C° 0 mm 2 mps 651 mmHg 63%
    05:00 +13°C° 0 mm 2 mps 651 mmHg 62%
    06:00 +13°C° 0 mm 2 mps 652 mmHg 60%
    07:00 +14°C° 0 mm 2 mps 652 mmHg 57%
    08:00 +14°C° 0 mm 2 mps 653 mmHg 55%
    09:00 +16°C° 0 mm 2 mps 653 mmHg 53%
    10:00 +18°C° 0 mm 3 mps 653 mmHg 52%
    11:00 +19°C° 0 mm 3 mps 653 mmHg 50%
    12:00 +20°C° 0 mm 3 mps 653 mmHg 51%
    13:00 +20°C° 0 mm 3 mps 652 mmHg 51%
    14:00 +21°C° 0 mm 3 mps 651 mmHg 51%
    15:00 +20°C° 0 mm 3 mps 651 mmHg 55%
    16:00 +19°C° 0 mm 2 mps 651 mmHg 60%
    17:00 +18°C° 0 mm 2 mps 651 mmHg 64%
    18:00 +16°C° 0 mm 2 mps 651 mmHg 68%
    19:00 +15°C° 0 mm 2 mps 652 mmHg 73%
    20:00 +13°C° 0 mm 1 mps 652 mmHg 78%
    21:00 +13°C° 0 mm 1 mps 652 mmHg 77%
    22:00 +13°C° 0 mm 1 mps 652 mmHg 75%
    23:00 +12°C° 0 mm 1 mps 652 mmHg 74%

    29 June, Thursday

    Time Temperature Precipitation Wind Pressure Humidity
    00:00 +12°C° 0 mm 1 mps 651 mmHg 73%
    01:00 +12°C° 0 mm 1 mps 651 mmHg 73%
    02:00 +12°C° 0 mm 1 mps 651 mmHg 72%
    03:00 +12°C° 0 mm 1 mps 651 mmHg 72%
    04:00 +11°C° 0 mm 1 mps 651 mmHg 72%
    05:00 +11°C° 0 mm 1 mps 651 mmHg 72%
    06:00 +12°C° 0 mm 1 mps 651 mmHg 70%
    07:00 +12°C° 0 mm 1 mps 652 mmHg 69%
    08:00 +13°C° 0 mm 1 mps 653 mmHg 67%
    09:00 +14°C° 0 mm 2 mps 653 mmHg 63%
    10:00 +16°C° 0 mm 2 mps 653 mmHg 60%
    11:00 +18°C° 0 mm 3 mps 653 mmHg 56%
    12:00 +18°C° 0 mm 3 mps 653 mmHg 56%
    13:00 +19°C° 0 mm 3 mps 652 mmHg 55%
    14:00 +19°C° 0 mm 3 mps 652 mmHg 55%
    15:00 +18°C° 0 mm 3 mps 652 mmHg 59%
    16:00 +17°C° 0 mm 2 mps 652 mmHg 64%
    17:00 +16°C° 0 mm 2 mps 652 mmHg 69%
    18:00 +15°C° 0 mm 2 mps 652 mmHg 74%
    19:00 +13°C° 0 mm 1 mps 652 mmHg 79%
    20:00 +12°C° 0 mm 1 mps 652 mmHg 84%
    21:00 +11°C° 0 mm 1 mps 653 mmHg 84%
    22:00 +11°C° 0 mm 1 mps 653 mmHg 84%
    23:00 +11°C° 0 mm 1 mps 653 mmHg 84%
    Show more